Home > Time Zones > World Clock > Weather > Peru > Ica > Past weeks

Flag for Peru Weather past 2 weeks in Ica, Ica, Peru

Now
77 °F

Sunny.


Feels Like: 79 °F
Forecast: N/A
Wind: 23 mph from Southwest

Location: Pisco Airport

Current Time: Mar 3, 2015 at 5:47:52 PM

Latest Report: Mar 3, 2015 at 5:00 PM


Visibility: 10 mi

Pressure: 29.74 "Hg

Humidity: 69%

Dew point: 66 °F

Location of IcaLocation

Historic Weather in Ica — Graph

°F

Ica temperature yesterday

Maximum temperature yesterday: 77 °F (at 3:00 PM)
Minimum temperature yesterday: 68 °F (at 6:00 AM)
Average temperature yesterday: 72 °F

Past Weeks' High & Low Weather Summary

 TemperatureHumidityPressure
High90 °F (Feb 22, 5:00 PM)94% (Feb 17, 3:00 AM)29.95 "Hg (Feb 17, 3:00 AM)
Low68 °F (Feb 23, 5:00 AM)43% (Feb 22, 5:00 PM)29.68 "Hg (Feb 23, 2:00 PM)
Average74 °F80%29.85 "Hg
* Reported Feb 16 5:00 PM — Mar 3 5:00 PM, Ica, Weather by CustomWeather, © 2015

Note: Actual official high and low records may vary slightly from our data, if they occured in-between our weather recording intervals... More about our weather records

Advertising

Ica weather history for previous 24 hours

 ConditionsComfort  
Time TempWeatherWind HumidityBarometerVisibility
5:00 PM
Tue, Mar 3
77 °FSunny.23 mph69%29.74 "Hg10 mi
4:00 PM77 °FSunny.23 mph69%29.74 "Hg10 mi
3:00 PM79 °FSunny.15 mph65%29.77 "Hg10 mi
2:00 PM79 °FSunny.9 mph70%29.83 "Hg10 mi
1:00 PM75 °FSunny.9 mph78%29.83 "Hg10 mi
12:00 PM75 °FSunny.7 mph83%29.86 "Hg10 mi
11:00 AM75 °FPassing clouds.12 mph83%29.89 "HgN/A
10:00 AM75 °FPassing clouds.7 mph78%29.89 "Hg5 mi
9:00 AM73 °FPartly sunny.6 mph83%29.89 "Hg4 mi
8:00 AM72 °FPartly sunny.2 mph88%29.86 "Hg4 mi
7:00 AM70 °FPartly sunny.5 mph88%29.83 "HgN/A
6:00 AM68 °FPassing clouds.3 mph94%29.83 "HgN/A
5:00 AM68 °FPassing clouds.3 mph94%29.80 "HgN/A
4:00 AM68 °FPassing clouds.9 mph94%29.80 "HgN/A
3:00 AM70 °FPassing clouds.8 mph88%29.80 "HgN/A
2:00 AM72 °FPassing clouds.7 mph88%29.83 "HgN/A
1:00 AM72 °FPassing clouds.7 mph88%29.83 "HgN/A
12:00 AM72 °FPassing clouds.12 mph88%29.86 "HgN/A
11:00 PM
Mon, Mar 2
72 °FPassing clouds.12 mph88%29.86 "HgN/A
10:00 PM73 °FPassing clouds.15 mph83%29.86 "HgN/A
9:00 PM73 °FPassing clouds.14 mph83%29.83 "HgN/A
8:00 PM73 °FPassing clouds.16 mph83%29.83 "HgN/A
7:00 PM73 °FPassing clouds.17 mph83%29.83 "HgN/A
6:00 PM73 °FPartly sunny.20 mph83%29.80 "HgN/A
5:00 PM75 °FPartly sunny.23 mph78%29.80 "HgN/A
Weather by CustomWeather, © 2015

See weather overviewHow to use our weather pages